Location: Burera
(21.3780°N, 81.9534°E)
Time: 10:18:13
(UTC+00:00)

NOSS 3-2 (A) - Pass Details

Date: 13 August 2020
Orbit: 796 x 1412 km, 63.4° (Epoch: 16 September)

Event Time Altitude Azimuth Distance (km) Brightness Sun altitude
Rises 13:59:17 0° 205° (SSW) 3,284 6.3 -13.1°
Reaches altitude 10° 14:01:38 10° 205° (SSW) 2,358 5.6 -13.6°
Maximum altitude 14:06:59 89° 291° (WNW) 825 3.1 -14.7°
Drops below altitude 10° 14:12:46 10° 26° (NNE) 2,537 5.7 -16.0°
Sets 14:15:24 0° 26° (NNE) 3,553 6.4 -16.5°
